TimeCDT,TemperatureF,Dew PointF,Humidity,Sea Level PressureIn,VisibilityMPH,Wind Direction,Wind SpeedMPH,Gust SpeedMPH,PrecipitationIn,Events,Conditions,WindDirDegrees,DateUTC
12:15 AM,57.2,57.2,100,30.01,10.0,Calm,Calm,-,N/A,,Clear,0,2013-05-08 05:15:00
12:35 AM,57.2,57.2,100,30.00,10.0,Calm,Calm,-,N/A,,Clear,0,2013-05-08 05:35:00
12:55 AM,55.4,55.4,100,30.01,10.0,Calm,Calm,-,N/A,,Clear,0,2013-05-08 05:55:00
1:15 AM,55.4,55.4,100,30.00,10.0,Calm,Calm,-,N/A,,Clear,0,2013-05-08 06:15:00
1:35 AM,53.6,53.6,100,29.99,10.0,Calm,Calm,-,N/A,,Partly Cloudy,0,2013-05-08 06:35:00
1:55 AM,53.6,53.6,100,29.99,10.0,Calm,Calm,-,N/A,,Scattered Clouds,0,2013-05-08 06:55:00
2:15 AM,53.6,53.6,100,29.99,10.0,Calm,Calm,-,N/A,,Scattered Clouds,0,2013-05-08 07:15:00
2:35 AM,53.6,53.6,100,29.99,10.0,Calm,Calm,-,N/A,,Scattered Clouds,0,2013-05-08 07:35:00
2:55 AM,53.6,53.6,100,29.99,10.0,Calm,Calm,-,N/A,,Scattered Clouds,0,2013-05-08 07:55:00
3:15 AM,51.8,51.8,100,30.00,10.0,Calm,Calm,-,N/A,,Mostly Cloudy,0,2013-05-08 08:15:00
3:35 AM,50.0,50.0,100,30.00,10.0,Calm,Calm,-,N/A,,Scattered Clouds,0,2013-05-08 08:35:00
3:55 AM,51.8,51.8,100,30.00,10.0,Calm,Calm,-,N/A,,Partly Cloudy,0,2013-05-08 08:55:00
4:15 AM,50.0,50.0,100,30.00,7.0,Calm,Calm,-,N/A,,Scattered Clouds,0,2013-05-08 09:15:00
4:35 AM,51.8,51.8,100,30.00,10.0,Calm,Calm,-,N/A,,Scattered Clouds,0,2013-05-08 09:35:00
4:55 AM,50.0,50.0,100,30.00,8.0,Calm,Calm,-,N/A,,Partly Cloudy,0,2013-05-08 09:55:00
5:15 AM,50.0,50.0,100,30.01,9.0,Calm,Calm,-,N/A,,Partly Cloudy,0,2013-05-08 10:15:00
5:35 AM,50.0,50.0,100,30.01,10.0,Calm,Calm,-,N/A,,Partly Cloudy,0,2013-05-08 10:35:00
5:55 AM,50.0,50.0,100,30.01,7.0,Calm,Calm,-,N/A,,Clear,0,2013-05-08 10:55:00
6:15 AM,50.0,50.0,100,30.02,9.0,Calm,Calm,-,N/A,,Clear,0,2013-05-08 11:15:00
6:35 AM,50.0,50.0,100,30.03,8.0,Calm,Calm,-,N/A,,Clear,0,2013-05-08 11:35:00
6:55 AM,50.0,50.0,100,30.03,8.0,Calm,Calm,-,N/A,,Partly Cloudy,0,2013-05-08 11:55:00
7:15 AM,51.8,51.8,100,30.04,9.0,Calm,Calm,-,N/A,,Partly Cloudy,0,2013-05-08 12:15:00
7:35 AM,55.4,55.4,100,30.04,10.0,Calm,Calm,-,N/A,,Clear,0,2013-05-08 12:35:00
7:55 AM,55.4,55.4,100,30.04,10.0,Calm,Calm,-,N/A,,Clear,0,2013-05-08 12:55:00
8:15 AM,57.2,57.2,100,30.05,10.0,Calm,Calm,-,N/A,,Clear,0,2013-05-08 13:15:00
8:35 AM,59.0,57.2,94,30.04,10.0,Calm,Calm,-,N/A,,Clear,0,2013-05-08 13:35:00
8:55 AM,62.6,57.2,82,30.05,10.0,Calm,Calm,-,N/A,Rain,Light Rain,0,2013-05-08 13:55:00
9:15 AM,64.4,57.2,77,30.05,10.0,Calm,Calm,-,N/A,,Clear,0,2013-05-08 14:15:00
9:35 AM,66.2,57.2,73,30.05,10.0,Calm,Calm,-,N/A,,Clear,0,2013-05-08 14:35:00
9:55 AM,66.2,57.2,73,30.05,10.0,Calm,Calm,-,N/A,,Clear,0,2013-05-08 14:55:00
10:15 AM,68.0,59.0,73,30.05,10.0,Calm,Calm,-,N/A,,Clear,0,2013-05-08 15:15:00
10:35 AM,71.6,59.0,64,30.04,10.0,Calm,Calm,-,N/A,,Clear,0,2013-05-08 15:35:00
10:55 AM,73.4,57.2,57,30.04,10.0,Calm,Calm,-,N/A,,Clear,0,2013-05-08 15:55:00
11:15 AM,75.2,55.4,50,30.04,10.0,Calm,Calm,-,N/A,,Clear,0,2013-05-08 16:15:00
11:35 AM,75.2,55.4,50,30.04,10.0,SE,3.5,-,N/A,,Clear,140,2013-05-08 16:35:00
11:55 AM,77.0,53.6,44,30.03,10.0,Calm,Calm,-,N/A,,Clear,0,2013-05-08 16:55:00
12:15 PM,77.0,50.0,39,30.02,10.0,East,5.8,-,N/A,,Clear,100,2013-05-08 17:15:00
12:35 PM,77.0,50.0,39,30.02,10.0,SE,4.6,-,N/A,,Clear,140,2013-05-08 17:35:00
12:55 PM,77.0,48.2,36,30.01,10.0,WNW,3.5,-,N/A,,Partly Cloudy,290,2013-05-08 17:55:00
1:15 PM,77.0,48.2,36,30.01,10.0,Calm,Calm,-,N/A,,Clear,0,2013-05-08 18:15:00
1:35 PM,77.0,48.2,36,30.01,10.0,Calm,Calm,-,N/A,,Scattered Clouds,0,2013-05-08 18:35:00
1:55 PM,78.8,48.2,34,30.00,10.0,ESE,3.5,-,N/A,,Partly Cloudy,110,2013-05-08 18:55:00
2:15 PM,80.6,48.2,32,30.00,10.0,Calm,Calm,-,N/A,,Partly Cloudy,0,2013-05-08 19:15:00
2:35 PM,80.6,48.2,32,29.99,10.0,Calm,Calm,-,N/A,,Partly Cloudy,0,2013-05-08 19:35:00
2:55 PM,80.6,48.2,32,29.99,10.0,Calm,Calm,-,N/A,,Mostly Cloudy,0,2013-05-08 19:55:00
3:35 PM,80.6,48.2,32,29.97,10.0,SW,5.8,-,N/A,,Partly Cloudy,220,2013-05-08 20:35:00
3:55 PM,78.8,50.0,36,29.97,10.0,WNW,5.8,-,N/A,,Scattered Clouds,290,2013-05-08 20:55:00
4:15 PM,75.2,55.4,50,29.98,10.0,WNW,12.7,17.3,N/A,,Mostly Cloudy,300,2013-05-08 21:15:00
4:35 PM,75.2,55.4,50,29.98,10.0,WNW,10.4,-,N/A,,Mostly Cloudy,290,2013-05-08 21:35:00
4:55 PM,73.4,55.4,53,29.99,10.0,WNW,8.1,-,N/A,,Scattered Clouds,290,2013-05-08 21:55:00
5:15 PM,73.4,55.4,53,29.99,10.0,WNW,9.2,-,N/A,,Partly Cloudy,290,2013-05-08 22:15:00
5:35 PM,71.6,57.2,60,30.00,10.0,WNW,9.2,-,N/A,,Partly Cloudy,290,2013-05-08 22:35:00
5:55 PM,69.8,57.2,64,30.00,10.0,WNW,10.4,16.1,N/A,Rain,Light Rain,300,2013-05-08 22:55:00
6:15 PM,68.0,59.0,73,30.00,6.0,NW,6.9,-,N/A,Rain,Light Rain,310,2013-05-08 23:15:00
6:35 PM,66.2,60.8,83,29.99,9.0,North,4.6,-,0.01,Rain,Light Rain,350,2013-05-08 23:35:00
6:55 PM,66.2,62.6,88,29.99,10.0,North,4.6,-,0.01,,Overcast,10,2013-05-08 23:55:00
7:15 PM,64.4,60.8,88,29.98,10.0,NNE,3.5,-,N/A,,Overcast,30,2013-05-09 00:15:00
7:35 PM,64.4,60.8,88,29.98,10.0,Calm,Calm,-,N/A,,Mostly Cloudy,0,2013-05-09 00:35:00
7:55 PM,64.4,60.8,88,29.99,10.0,ESE,3.5,-,N/A,,Overcast,110,2013-05-09 00:55:00
8:15 PM,64.4,62.6,94,29.98,10.0,Calm,Calm,-,N/A,,Overcast,0,2013-05-09 01:15:00
8:35 PM,64.4,62.6,94,29.98,10.0,Calm,Calm,-,N/A,,Overcast,0,2013-05-09 01:35:00
8:55 PM,62.6,62.6,100,29.99,10.0,Calm,Calm,-,N/A,,Overcast,0,2013-05-09 01:55:00
9:15 PM,64.4,62.6,94,29.99,10.0,Calm,Calm,-,N/A,,Overcast,0,2013-05-09 02:15:00
9:35 PM,64.4,62.6,94,30.00,10.0,Calm,Calm,-,N/A,,Overcast,0,2013-05-09 02:35:00
10:15 PM,62.6,62.6,100,29.98,10.0,Calm,Calm,-,N/A,,Mostly Cloudy,0,2013-05-09 03:15:00
10:35 PM,62.6,62.6,100,29.99,10.0,Calm,Calm,-,N/A,,Mostly Cloudy,0,2013-05-09 03:35:00
10:55 PM,62.6,60.8,94,29.99,10.0,Calm,Calm,-,N/A,,Overcast,0,2013-05-09 03:55:00
11:55 PM,62.6,62.6,100,29.98,10.0,Calm,Calm,-,N/A,,Overcast,0,2013-05-09 04:55:00